Sturgeon Bay, WI

12:35 PM CST on November 21, 2017 (GMT -0600)
Door County Cherryland

Weather History for KSUE - March, 2012

Change the Weather History Date:

Sunday, March 4, 2012

  Actual Average Record
Temperature  
Mean Temperature 18 °F -  
Max Temperature 19 °F 35 °F 53 °F (1974)
Min Temperature 17 °F 20 °F -10 °F (1917)
Degree Days  
Heating Degree Days 47    
Moisture  
Dew Point 12 °F    
Average Humidity 74    
Maximum Humidity 93    
Minimum Humidity 63    
Precipitation  
Precipitation 0.00 in - - ()
Sea Level Pressure  
Sea Level Pressure 29.87 in    
Wind  
Wind Speed 9 mph (North)    
Max Wind Speed 13 mph    
Max Gust Speed -    
Visibility 8 miles    
Events      
Averages and records for this station are not official NWS values.
T = Trace of Precipitation, MM = Missing Value Source: NWS Daily Summary

Daily Weather History Graph

Daily Weather History Graph

Search for Another Location

Airport or City:

Trip Planner

Search our weather history database for the weather conditions in past years. The results will help you decide how hot, cold, wet, or windy it might be!

Date:

Astronomy

Mar. 04, 2012 Rise Set
Actual Time 6:21 AM CST 5:42 PM CST
Civil Twilight 5:51 AM CST 6:11 PM CST
Nautical Twilight 5:18 AM CST 6:45 PM CST
Astronomical Twilight 4:44 AM CST 7:19 PM CST
Moon 1:45 PM CST (3/4) 3:50 AM CST (3/4)
Length of Visible Light 12h 19m
Length of Day
11h 20m
Waxing Gibbous, 84% of the Moon is Illuminated
Mar 4
Waxing Gibbous
Mar 8
Full
Mar 14
Last Quarter
Mar 22
New
Mar 30
First Quarter

Hourly Weather History & Observations

Time (CST) Temp. Windchill Dew Point Humidity Pressure Visibility Wind Dir Wind Speed Gust Speed Precip Events Conditions
12:15 AM 19.4 °F 7.9 °F 10.4 °F 68% 29.80 in 10.0 mi NNW 10.4 mph - N/A   Mostly Cloudy
12:35 AM 19.4 °F 8.6 °F 12.2 °F 74% 29.80 in 10.0 mi NNW 9.2 mph - N/A   Overcast
12:55 AM 19.4 °F 7.9 °F 12.2 °F 74% 29.80 in 10.0 mi NNW 10.4 mph - N/A   Overcast
1:15 AM 19.4 °F 7.2 °F 12.2 °F 74% 29.80 in 10.0 mi NNW 11.5 mph - N/A   Overcast
1:35 AM 19.4 °F 6.6 °F 12.2 °F 74% 29.80 in 10.0 mi NNW 12.7 mph - N/A   Overcast
1:55 AM 19.4 °F 8.6 °F 12.2 °F 74% 29.80 in 10.0 mi North 9.2 mph - N/A   Overcast
2:15 AM 17.6 °F 7.3 °F 12.2 °F 79% 29.81 in 10.0 mi NNW 8.1 mph - N/A   Overcast
2:35 AM 19.4 °F 7.2 °F 12.2 °F 74% 29.81 in 10.0 mi North 11.5 mph - N/A   Overcast
2:55 AM 19.4 °F 7.2 °F 12.2 °F 74% 29.81 in 10.0 mi North 11.5 mph - N/A   Overcast
3:15 AM 19.4 °F 8.6 °F 12.2 °F 74% 29.82 in 10.0 mi North 9.2 mph - N/A   Overcast
3:35 AM 19.4 °F 7.2 °F 14.0 °F 80% 29.82 in 10.0 mi North 11.5 mph - N/A   Overcast
3:55 AM 19.4 °F 7.9 °F 12.2 °F 74% 29.82 in 10.0 mi North 10.4 mph - N/A   Overcast
4:15 AM 19.4 °F 7.2 °F 12.2 °F 74% 29.83 in 10.0 mi North 11.5 mph - N/A   Mostly Cloudy
4:35 AM 19.4 °F 7.2 °F 12.2 °F 74% 29.83 in 10.0 mi North 11.5 mph - N/A   Overcast
4:55 AM 17.6 °F 5.7 °F 12.2 °F 79% 29.83 in 10.0 mi North 10.4 mph - N/A   Overcast
5:15 AM 17.6 °F 5.7 °F 12.2 °F 79% 29.84 in 10.0 mi North 10.4 mph - N/A   Overcast
5:35 AM 17.6 °F 6.4 °F 12.2 °F 79% 29.84 in 10.0 mi North 9.2 mph - N/A   Overcast
5:55 AM 17.6 °F 5.0 °F 12.2 °F 79% 29.84 in 10.0 mi North 11.5 mph - N/A   Overcast
6:15 AM 17.6 °F 4.3 °F 12.2 °F 79% 29.84 in 10.0 mi North 12.7 mph - N/A   Overcast
6:35 AM 17.6 °F 5.7 °F 14.0 °F 86% 29.85 in 5.0 mi North 10.4 mph - N/A   Overcast
6:55 AM 17.6 °F 5.7 °F 14.0 °F 86% 29.85 in 3.0 mi North 10.4 mph - N/A   Overcast
7:15 AM 17.6 °F 8.2 °F 15.8 °F 93% 29.85 in 4.0 mi NE 6.9 mph - N/A   Overcast
7:35 AM 17.6 °F 8.2 °F 12.2 °F 79% 29.87 in 4.0 mi NE 6.9 mph - N/A   Overcast
7:55 AM 17.6 °F 9.3 °F 12.2 °F 79% 29.87 in 5.0 mi NNE 5.8 mph - N/A   Overcast
8:15 AM 17.6 °F 8.2 °F 12.2 °F 79% 29.88 in 4.0 mi NNE 6.9 mph - N/A   Overcast
8:35 AM 17.6 °F 8.2 °F 10.4 °F 73% 29.88 in 3.0 mi NE 6.9 mph - N/A   Overcast
8:55 AM 17.6 °F 9.3 °F 10.4 °F 73% 29.88 in 2.5 mi NNE 5.8 mph - N/A   Overcast
9:15 AM 17.6 °F 9.3 °F 12.2 °F 79% 29.88 in 2.5 mi North 5.8 mph - N/A   Overcast
9:35 AM 19.4 °F 12.8 °F 12.2 °F 74% 29.89 in 2.5 mi North 4.6 mph - N/A   Overcast
9:55 AM 17.6 °F 9.3 °F 12.2 °F 79% 29.88 in 4.0 mi North 5.8 mph - N/A   Overcast
10:15 AM 19.4 °F 8.6 °F 10.4 °F 68% 29.89 in 6.0 mi North 9.2 mph - N/A   Overcast
10:35 AM 17.6 °F 6.4 °F 10.4 °F 73% 29.89 in 8.0 mi North 9.2 mph - N/A   Overcast
10:55 AM 19.4 °F 8.6 °F 12.2 °F 74% 29.89 in 8.0 mi North 9.2 mph - N/A   Overcast
11:15 AM 19.4 °F 7.9 °F 12.2 °F 74% 29.89 in 10.0 mi North 10.4 mph - N/A   Overcast
11:35 AM 19.4 °F 7.9 °F 10.4 °F 68% 29.90 in 10.0 mi NNW 10.4 mph - N/A   Overcast
11:55 AM 19.4 °F 7.9 °F 10.4 °F 68% 29.90 in 10.0 mi North 10.4 mph - N/A   Overcast
12:15 PM 19.4 °F 9.5 °F 10.4 °F 68% 29.89 in 10.0 mi North 8.1 mph - N/A   Overcast
12:35 PM 19.4 °F 8.6 °F 10.4 °F 68% 29.89 in 10.0 mi North 9.2 mph - N/A   Overcast
12:55 PM 19.4 °F 10.4 °F 10.4 °F 68% 29.89 in 8.0 mi NNW 6.9 mph - N/A   Overcast
1:15 PM 19.4 °F 9.5 °F 10.4 °F 68% 29.89 in 10.0 mi North 8.1 mph - N/A   Overcast
1:35 PM 19.4 °F 11.5 °F 8.6 °F 63% 29.89 in 10.0 mi North 5.8 mph - N/A   Overcast
1:55 PM 19.4 °F 10.4 °F 10.4 °F 68% 29.89 in 10.0 mi North 6.9 mph - N/A   Overcast
2:15 PM 19.4 °F 9.5 °F 12.2 °F 74% 29.88 in 10.0 mi North 8.1 mph - N/A   Overcast
2:35 PM 19.4 °F 9.5 °F 12.2 °F 74% 29.89 in 10.0 mi North 8.1 mph - N/A   Overcast
2:55 PM 19.4 °F 10.4 °F 8.6 °F 63% 29.90 in 10.0 mi North 6.9 mph - N/A   Overcast
3:15 PM 19.4 °F 9.5 °F 8.6 °F 63% 29.90 in 10.0 mi North 8.1 mph - N/A   Overcast
3:35 PM 19.4 °F 8.6 °F 10.4 °F 68% 29.90 in 10.0 mi North 9.2 mph - N/A   Overcast
3:55 PM 19.4 °F 9.5 °F 10.4 °F 68% 29.92 in 10.0 mi North 8.1 mph - N/A   Overcast
4:15 PM 19.4 °F 9.5 °F 10.4 °F 68% 29.92 in 10.0 mi North 8.1 mph - N/A   Overcast
4:35 PM 19.4 °F 9.5 °F 10.4 °F 68% 29.92 in 10.0 mi North 8.1 mph - N/A   Overcast
4:55 PM 19.4 °F 10.4 °F 10.4 °F 68% 29.94 in 10.0 mi NNW 6.9 mph - N/A   Overcast
5:15 PM 19.4 °F 12.8 °F 12.2 °F 74% 29.94 in 10.0 mi NNW 4.6 mph - N/A   Overcast
5:35 PM 19.4 °F 11.5 °F 12.2 °F 74% 29.95 in 10.0 mi North 5.8 mph - N/A   Overcast
5:55 PM 19.4 °F 11.5 °F 12.2 °F 74% 29.96 in 8.0 mi North 5.8 mph - N/A   Overcast
6:15 PM 19.4 °F 11.5 °F 12.2 °F 74% 29.96 in 5.0 mi North 5.8 mph - N/A   Overcast
6:35 PM 19.4 °F 11.5 °F 12.2 °F 74% 29.97 in 5.0 mi NNE 5.8 mph - N/A   Overcast
6:55 PM 19.4 °F 12.8 °F 14.0 °F 80% 29.98 in 5.0 mi North 4.6 mph - N/A   Overcast
7:15 PM 19.4 °F 12.8 °F 14.0 °F 80% 29.98 in 3.0 mi North 4.6 mph - N/A   Overcast
7:35 PM 19.4 °F 11.5 °F 14.0 °F 80% 29.98 in 6.0 mi North 5.8 mph - N/A   Overcast
7:55 PM 19.4 °F 10.4 °F 15.8 °F 86% 29.99 in 8.0 mi North 6.9 mph - N/A   Overcast
8:15 PM 17.6 °F 5.7 °F 10.4 °F 73% 29.99 in 9.0 mi North 10.4 mph - N/A   Overcast
8:35 PM 17.6 °F 7.3 °F 10.4 °F 73% 30.00 in 10.0 mi North 8.1 mph - N/A   Overcast
8:55 PM 15.8 °F 4.2 °F 12.2 °F 86% 30.01 in 10.0 mi North 9.2 mph - N/A   Overcast
9:15 PM 15.8 °F 3.4 °F 8.6 °F 73% 30.01 in 10.0 mi North 10.4 mph - N/A   Mostly Cloudy
9:55 PM 15.8 °F 4.2 °F 8.6 °F 73% 30.03 in 10.0 mi North 9.2 mph - N/A   Overcast
10:15 PM 15.8 °F 5.1 °F 6.8 °F 68% 30.03 in 10.0 mi NNW 8.1 mph - N/A   Overcast
10:35 PM 15.8 °F 5.1 °F 8.6 °F 73% 30.03 in 10.0 mi North 8.1 mph - N/A   Overcast
10:55 PM 14.0 °F 2.9 °F 8.6 °F 79% 30.03 in 8.0 mi North 8.1 mph - N/A   Overcast
11:15 PM 14.0 °F 3.9 °F 6.8 °F 73% 30.04 in 10.0 mi NNW 6.9 mph - N/A   Mostly Cloudy
11:35 PM 14.0 °F 3.9 °F 8.6 °F 79% 30.04 in 10.0 mi NNW 6.9 mph - N/A   Partly Cloudy
11:55 PM 12.2 °F 1.7 °F 6.8 °F 79% 30.04 in 10.0 mi NNW 6.9 mph - N/A   Clear